Time,TemperatureF,DewpointF,PressureIn,WindDirection,WindDirectionDegrees,WindSpeedMPH,WindSpeedGustMPH,Humidity,HourlyPrecipIn,Conditions,Clouds,dailyrainin,SoftwareType,DateUTC
2013-11-02 00:01:00,49.3,39.9,29.31,SW,228,7.0,20.0,70,0.00,,,0.00,meteohub,2013-11-02 04:01:00,
2013-11-02 00:03:00,49.1,40.1,29.31,North,5,5.0,20.0,71,0.00,,,0.00,meteohub,2013-11-02 04:03:00,
2013-11-02 00:04:00,48.9,39.9,29.32,ESE,119,5.0,20.0,71,0.00,,,0.00,meteohub,2013-11-02 04:04:00,
2013-11-02 00:09:00,48.9,39.9,29.32,WNW,297,12.0,20.0,71,0.00,,,0.00,meteohub,2013-11-02 04:09:00,
2013-11-02 00:10:00,48.7,39.7,29.32,West,268,2.0,20.0,71,0.00,,,0.00,meteohub,2013-11-02 04:10:00,
2013-11-02 00:15:00,48.7,39.7,29.33,WNW,283,16.0,18.0,71,0.00,,,0.00,meteohub,2013-11-02 04:15:00,
2013-11-02 00:20:00,48.6,39.6,29.33,WSW,244,2.0,19.0,71,0.00,,,0.00,meteohub,2013-11-02 04:20:00,
2013-11-02 00:25:00,48.6,39.2,29.34,West,271,6.0,19.0,70,0.00,,,0.00,meteohub,2013-11-02 04:25:00,
2013-11-02 00:30:00,48.4,39.0,29.35,West,279,9.0,19.0,70,0.00,,,0.00,meteohub,2013-11-02 04:30:00,
2013-11-02 00:35:00,48.4,39.4,29.36,NNW,334,1.0,16.0,71,0.00,,,0.00,meteohub,2013-11-02 04:35:00,
2013-11-02 00:40:00,48.2,39.2,29.36,WNW,299,1.0,16.0,71,0.00,,,0.00,meteohub,2013-11-02 04:40:00,
2013-11-02 00:46:00,48.0,39.0,29.37,SW,225,7.0,16.0,71,0.00,,,0.00,meteohub,2013-11-02 04:46:00,
2013-11-02 00:51:00,48.0,39.0,29.38,SW,215,5.0,15.0,71,0.00,,,0.00,meteohub,2013-11-02 04:51:00,
2013-11-02 00:56:00,47.8,38.8,29.39,WSW,240,4.0,15.0,71,0.00,,,0.00,meteohub,2013-11-02 04:56:00,
2013-11-02 01:01:00,47.8,38.8,29.39,West,280,8.0,15.0,71,0.00,,,0.00,meteohub,2013-11-02 05:01:00,
2013-11-02 01:06:00,47.7,39.0,29.39,West,260,0.0,15.0,72,0.00,,,0.00,meteohub,2013-11-02 05:06:00,
2013-11-02 01:11:00,47.5,38.8,29.39,WNW,300,9.0,14.0,72,0.00,,,0.00,meteohub,2013-11-02 05:11:00,
2013-11-02 01:16:00,47.3,38.7,29.40,WNW,290,2.0,16.0,72,0.00,,,0.00,meteohub,2013-11-02 05:16:00,
2013-11-02 01:21:00,47.1,38.8,29.40,NNW,339,0.0,16.0,73,0.00,,,0.00,meteohub,2013-11-02 05:21:00,
2013-11-02 01:27:00,47.1,38.8,29.41,SSE,157,0.0,16.0,73,0.00,,,0.00,meteohub,2013-11-02 05:27:00,
2013-11-02 01:32:00,46.9,38.7,29.41,North,355,7.0,11.0,73,0.00,,,0.00,meteohub,2013-11-02 05:32:00,
2013-11-02 01:37:00,47.1,38.8,29.41,East,96,1.0,17.0,73,0.00,,,0.00,meteohub,2013-11-02 05:37:00,
2013-11-02 01:42:00,47.1,38.8,29.42,WNW,295,1.0,17.0,73,0.00,,,0.00,meteohub,2013-11-02 05:42:00,
2013-11-02 01:47:00,47.1,38.8,29.43,SW,234,1.0,17.0,73,0.00,,,0.00,meteohub,2013-11-02 05:47:00,
2013-11-02 01:52:00,47.1,38.8,29.44,North,0,0.0,9.0,73,0.00,,,0.00,meteohub,2013-11-02 05:52:00,
2013-11-02 01:57:00,46.9,38.7,29.44,East,84,2.0,10.0,73,0.00,,,0.00,meteohub,2013-11-02 05:57:00,
2013-11-02 02:02:00,46.9,38.7,29.44,WSW,254,0.0,10.0,73,0.00,,,0.00,meteohub,2013-11-02 06:02:00,
2013-11-02 02:08:00,46.8,38.5,29.45,WSW,239,2.0,10.0,73,0.00,,,0.00,meteohub,2013-11-02 06:08:00,
2013-11-02 02:13:00,46.8,38.5,29.45,West,275,4.0,11.0,73,0.00,,,0.00,meteohub,2013-11-02 06:13:00,
2013-11-02 02:18:00,46.6,38.5,29.46,West,263,2.0,11.0,73,0.00,,,0.00,meteohub,2013-11-02 06:18:00,
2013-11-02 02:23:00,46.6,38.5,29.46,WSW,255,6.0,11.0,73,0.00,,,0.00,meteohub,2013-11-02 06:23:00,
2013-11-02 02:28:00,46.6,38.7,29.46,West,262,0.0,11.0,74,0.00,,,0.00,meteohub,2013-11-02 06:28:00,
2013-11-02 02:33:00,46.2,38.5,29.47,SW,230,4.0,9.0,74,0.00,,,0.00,meteohub,2013-11-02 06:33:00,
2013-11-02 02:38:00,46.2,38.5,29.47,WSW,250,0.0,9.0,74,0.00,,,0.00,meteohub,2013-11-02 06:38:00,
2013-11-02 02:43:00,46.0,38.3,29.47,SW,219,0.0,7.0,74,0.00,,,0.00,meteohub,2013-11-02 06:43:00,
2013-11-02 02:49:00,46.0,38.3,29.47,NNE,19,5.0,8.0,74,0.00,,,0.00,meteohub,2013-11-02 06:49:00,
2013-11-02 02:54:00,45.9,38.1,29.48,WNW,291,1.0,8.0,74,0.00,,,0.00,meteohub,2013-11-02 06:54:00,
2013-11-02 02:59:00,45.7,38.3,29.48,West,272,0.0,7.0,75,0.00,,,0.00,meteohub,2013-11-02 06:59:00,
2013-11-02 03:04:00,45.3,37.9,29.48,SSW,213,0.0,7.0,75,0.00,,,0.00,meteohub,2013-11-02 07:04:00,
2013-11-02 03:09:00,45.1,37.8,29.47,NNE,22,1.0,9.0,75,0.00,,,0.00,meteohub,2013-11-02 07:09:00,
2013-11-02 03:14:00,45.0,37.9,29.47,West,279,3.0,9.0,76,0.00,,,0.00,meteohub,2013-11-02 07:14:00,
2013-11-02 03:19:00,44.8,37.8,29.48,SSW,196,1.0,9.0,76,0.00,,,0.00,meteohub,2013-11-02 07:19:00,
2013-11-02 03:24:00,44.4,37.4,29.48,SW,228,5.0,7.0,76,0.00,,,0.00,meteohub,2013-11-02 07:24:00,
2013-11-02 03:30:00,44.2,37.6,29.49,WNW,300,0.0,7.0,77,0.00,,,0.00,meteohub,2013-11-02 07:30:00,
2013-11-02 03:35:00,44.1,37.4,29.49,WSW,238,0.0,9.0,77,0.00,,,0.00,meteohub,2013-11-02 07:35:00,
2013-11-02 03:40:00,43.9,37.2,29.49,West,263,3.0,9.0,77,0.00,,,0.00,meteohub,2013-11-02 07:40:00,
2013-11-02 03:45:00,43.7,37.2,29.49,West,262,0.0,7.0,78,0.00,,,0.00,meteohub,2013-11-02 07:45:00,
2013-11-02 03:50:00,43.5,37.0,29.49,WSW,257,8.0,8.0,78,0.00,,,0.00,meteohub,2013-11-02 07:50:00,
2013-11-02 03:55:00,43.5,37.0,29.50,WNW,285,2.0,8.0,78,0.00,,,0.00,meteohub,2013-11-02 07:55:00,
2013-11-02 04:00:00,43.3,36.9,29.50,SW,227,3.0,8.0,78,0.00,,,0.00,meteohub,2013-11-02 08:00:00,
2013-11-02 04:05:00,43.2,36.7,29.51,SW,223,3.0,8.0,78,0.00,,,0.00,meteohub,2013-11-02 08:05:00,
2013-11-02 04:11:00,43.2,36.7,29.51,SW,231,4.0,8.0,78,0.00,,,0.00,meteohub,2013-11-02 08:11:00,
2013-11-02 04:16:00,43.0,36.9,29.51,WSW,257,5.0,8.0,79,0.00,,,0.00,meteohub,2013-11-02 08:16:00,
2013-11-02 04:21:00,42.8,36.7,29.51,SW,234,4.0,7.0,79,0.00,,,0.00,meteohub,2013-11-02 08:21:00,
2013-11-02 04:26:00,42.6,36.5,29.51,WSW,244,1.0,7.0,79,0.00,,,0.00,meteohub,2013-11-02 08:26:00,
2013-11-02 04:31:00,42.4,36.7,29.51,WSW,238,2.0,7.0,80,0.00,,,0.00,meteohub,2013-11-02 08:31:00,
2013-11-02 04:36:00,42.3,36.5,29.51,SSW,204,3.0,7.0,80,0.00,,,0.00,meteohub,2013-11-02 08:36:00,
2013-11-02 04:41:00,42.1,36.3,29.51,SW,227,1.0,5.0,80,0.00,,,0.00,meteohub,2013-11-02 08:41:00,
2013-11-02 04:46:00,42.1,36.3,29.51,WSW,248,2.0,5.0,80,0.00,,,0.00,meteohub,2013-11-02 08:46:00,
2013-11-02 04:52:00,41.7,36.3,29.51,SSW,198,2.0,5.0,81,0.00,,,0.00,meteohub,2013-11-02 08:52:00,
2013-11-02 04:57:00,41.5,36.1,29.51,SSW,198,0.0,5.0,81,0.00,,,0.00,meteohub,2013-11-02 08:57:00,
2013-11-02 05:02:00,41.2,36.1,29.52,SSW,205,1.0,5.0,82,0.00,,,0.00,meteohub,2013-11-02 09:02:00,
2013-11-02 05:07:00,40.6,36.0,29.52,SSW,205,1.0,3.0,83,0.00,,,0.00,meteohub,2013-11-02 09:07:00,
2013-11-02 05:12:00,40.3,35.6,29.52,SSW,205,0.0,2.0,83,0.00,,,0.00,meteohub,2013-11-02 09:12:00,
2013-11-02 05:17:00,39.7,35.2,29.52,SSW,205,0.0,2.0,84,0.00,,,0.00,meteohub,2013-11-02 09:17:00,
2013-11-02 05:22:00,39.4,35.2,29.52,SSW,205,0.0,1.0,85,0.00,,,0.00,meteohub,2013-11-02 09:22:00,
2013-11-02 05:27:00,38.8,35.1,29.52,SSW,205,0.0,1.0,86,0.00,,,0.00,meteohub,2013-11-02 09:27:00,
2013-11-02 05:32:00,38.7,35.1,29.53,SSW,205,0.0,1.0,87,0.00,,,0.00,meteohub,2013-11-02 09:32:00,
2013-11-02 05:37:00,38.3,35.1,29.53,SSW,205,0.0,0.0,88,0.00,,,0.00,meteohub,2013-11-02 09:37:00,
2013-11-02 05:42:00,38.1,34.9,29.53,SSW,205,0.0,0.0,88,0.00,,,0.00,meteohub,2013-11-02 09:42:00,
2013-11-02 05:47:00,37.8,34.5,29.53,SSW,205,0.0,1.0,88,0.00,,,0.00,meteohub,2013-11-02 09:47:00,
2013-11-02 05:52:00,37.6,34.7,29.53,SSW,205,0.0,1.0,89,0.00,,,0.00,meteohub,2013-11-02 09:52:00,
2013-11-02 05:57:00,37.4,34.5,29.53,SSW,205,0.0,1.0,89,0.00,,,0.00,meteohub,2013-11-02 09:57:00,
2013-11-02 06:02:00,37.2,34.3,29.53,SSW,205,0.0,1.0,89,0.00,,,0.00,meteohub,2013-11-02 10:02:00,
2013-11-02 06:07:00,36.9,34.2,29.54,SSW,205,0.0,1.0,90,0.00,,,0.00,meteohub,2013-11-02 10:07:00,
2013-11-02 06:12:00,36.9,34.2,29.54,SSW,205,2.0,2.0,90,0.00,,,0.00,meteohub,2013-11-02 10:12:00,
2013-11-02 06:17:00,36.7,34.3,29.54,SSW,205,0.0,2.0,91,0.00,,,0.00,meteohub,2013-11-02 10:17:00,
2013-11-02 06:22:00,36.5,34.2,29.53,SSW,205,0.0,2.0,91,0.00,,,0.00,meteohub,2013-11-02 10:22:00,
2013-11-02 06:27:00,36.3,34.0,29.53,SSW,205,0.0,2.0,91,0.00,,,0.00,meteohub,2013-11-02 10:27:00,
2013-11-02 06:33:00,36.1,34.0,29.53,SSW,205,0.0,0.0,92,0.00,,,0.00,meteohub,2013-11-02 10:33:00,
2013-11-02 06:38:00,36.1,34.0,29.53,SSW,205,0.0,0.0,92,0.00,,,0.00,meteohub,2013-11-02 10:38:00,
2013-11-02 06:43:00,36.0,33.8,29.54,SSW,205,0.0,0.0,92,0.00,,,0.00,meteohub,2013-11-02 10:43:00,
2013-11-02 06:48:00,35.8,33.6,29.54,SSW,205,0.0,0.0,92,0.00,,,0.00,meteohub,2013-11-02 10:48:00,
2013-11-02 06:53:00,35.6,33.4,29.54,SSW,205,0.0,0.0,92,0.00,,,0.00,meteohub,2013-11-02 10:53:00,
2013-11-02 06:58:00,35.4,33.6,29.55,SSW,205,0.0,0.0,93,0.00,,,0.00,meteohub,2013-11-02 10:58:00,
2013-11-02 07:03:00,35.2,33.4,29.55,SSW,205,0.0,0.0,93,0.00,,,0.00,meteohub,2013-11-02 11:03:00,
2013-11-02 07:08:00,35.1,33.3,29.56,SSW,205,0.0,0.0,93,0.00,,,0.00,meteohub,2013-11-02 11:08:00,
2013-11-02 07:14:00,34.9,33.1,29.56,SSW,205,0.0,1.0,93,0.00,,,0.00,meteohub,2013-11-02 11:14:00,
2013-11-02 07:19:00,34.9,33.3,29.57,SSW,205,0.0,1.0,94,0.00,,,0.00,meteohub,2013-11-02 11:19:00,
2013-11-02 07:24:00,34.9,33.1,29.57,SSW,205,0.0,2.0,93,0.00,,,0.00,meteohub,2013-11-02 11:24:00,
2013-11-02 07:29:00,34.7,33.1,29.57,SSW,205,0.0,2.0,94,0.00,,,0.00,meteohub,2013-11-02 11:29:00,
2013-11-02 07:34:00,34.5,32.7,29.57,SSW,205,0.0,2.0,93,0.00,,,0.00,meteohub,2013-11-02 11:34:00,
2013-11-02 07:39:00,34.3,32.7,29.58,SSW,205,0.0,0.0,94,0.00,,,0.00,meteohub,2013-11-02 11:39:00,
2013-11-02 07:44:00,34.3,32.7,29.58,SSW,205,0.0,0.0,94,0.00,,,0.00,meteohub,2013-11-02 11:44:00,
2013-11-02 07:49:00,34.5,32.9,29.58,SSW,205,0.0,0.0,94,0.00,,,0.00,meteohub,2013-11-02 11:49:00,
2013-11-02 07:54:00,34.9,33.3,29.58,SSW,205,0.0,1.0,94,0.00,,,0.00,meteohub,2013-11-02 11:54:00,
2013-11-02 08:00:00,35.2,33.6,29.58,SW,215,1.0,2.0,94,0.00,,,0.00,meteohub,2013-11-02 12:00:00,
2013-11-02 08:05:00,35.8,34.5,29.58,SSW,209,0.0,3.0,95,0.00,,,0.00,meteohub,2013-11-02 12:05:00,
2013-11-02 08:10:00,36.5,34.9,29.58,SSW,209,0.0,3.0,94,0.00,,,0.00,meteohub,2013-11-02 12:10:00,
2013-11-02 08:15:00,37.0,35.2,29.59,SSW,209,0.0,2.0,93,0.00,,,0.00,meteohub,2013-11-02 12:15:00,
2013-11-02 08:20:00,37.0,34.9,29.59,SSW,209,0.0,2.0,92,0.00,,,0.00,meteohub,2013-11-02 12:20:00,
2013-11-02 08:25:00,37.4,35.2,29.59,SSW,209,0.0,0.0,92,0.00,,,0.00,meteohub,2013-11-02 12:25:00,
2013-11-02 08:30:00,37.8,35.4,29.59,SSW,209,0.0,0.0,91,0.00,,,0.00,meteohub,2013-11-02 12:30:00,
2013-11-02 08:35:00,38.1,35.8,29.59,SSW,209,0.0,0.0,91,0.00,,,0.00,meteohub,2013-11-02 12:35:00,
2013-11-02 08:41:00,38.7,36.0,29.59,SSW,209,0.0,0.0,90,0.00,,,0.00,meteohub,2013-11-02 12:41:00,
2013-11-02 08:46:00,39.4,36.1,29.59,SSW,211,0.0,0.0,88,0.00,,,0.00,meteohub,2013-11-02 12:46:00,
2013-11-02 08:51:00,40.1,36.3,29.59,SSW,211,0.0,1.0,86,0.00,,,0.00,meteohub,2013-11-02 12:51:00,
2013-11-02 08:56:00,40.8,36.7,29.60,SSW,211,0.0,1.0,85,0.00,,,0.00,meteohub,2013-11-02 12:56:00,
2013-11-02 09:01:00,41.2,36.5,29.60,SW,226,1.0,2.0,83,0.00,,,0.00,meteohub,2013-11-02 13:01:00,
2013-11-02 09:06:00,41.2,36.5,29.60,West,275,0.0,5.0,83,0.00,,,0.00,meteohub,2013-11-02 13:06:00,
2013-11-02 09:11:00,41.2,36.5,29.60,West,275,0.0,5.0,83,0.00,,,0.00,meteohub,2013-11-02 13:11:00,
2013-11-02 09:16:00,41.2,36.5,29.61,WSW,250,0.0,5.0,83,0.00,,,0.00,meteohub,2013-11-02 13:16:00,
2013-11-02 09:22:00,41.2,36.1,29.61,West,267,0.0,2.0,82,0.00,,,0.00,meteohub,2013-11-02 13:22:00,
2013-11-02 09:27:00,41.2,36.5,29.61,West,267,0.0,3.0,83,0.00,,,0.00,meteohub,2013-11-02 13:27:00,
2013-11-02 09:32:00,41.4,36.9,29.61,WNW,287,0.0,3.0,84,0.00,,,0.00,meteohub,2013-11-02 13:32:00,
2013-11-02 09:37:00,41.5,36.7,29.61,NNE,32,0.0,3.0,83,0.00,,,0.00,meteohub,2013-11-02 13:37:00,
2013-11-02 09:42:00,41.5,36.7,29.61,NNE,32,0.0,3.0,83,0.00,,,0.00,meteohub,2013-11-02 13:42:00,
2013-11-02 09:47:00,41.7,36.9,29.60,NE,38,1.0,3.0,83,0.00,,,0.00,meteohub,2013-11-02 13:47:00,
2013-11-02 09:52:00,41.9,37.0,29.60,NE,38,0.0,3.0,83,0.00,,,0.00,meteohub,2013-11-02 13:52:00,
2013-11-02 09:57:00,42.1,37.0,29.60,NE,38,0.0,3.0,82,0.00,,,0.00,meteohub,2013-11-02 13:57:00,
2013-11-02 10:02:00,42.3,36.9,29.60,NNW,330,2.0,3.0,81,0.00,,,0.00,meteohub,2013-11-02 14:02:00,
2013-11-02 10:07:00,42.3,36.9,29.60,NNW,328,0.0,4.0,81,0.00,,,0.00,meteohub,2013-11-02 14:07:00,
2013-11-02 10:12:00,42.4,37.0,29.60,ENE,63,0.0,4.0,81,0.00,,,0.00,meteohub,2013-11-02 14:12:00,
2013-11-02 10:17:00,42.4,36.7,29.59,West,278,2.0,5.0,80,0.00,,,0.00,meteohub,2013-11-02 14:17:00,
2013-11-02 10:22:00,42.4,36.7,29.59,North,0,2.0,8.0,80,0.00,,,0.00,meteohub,2013-11-02 14:22:00,
2013-11-02 10:27:00,42.6,36.5,29.60,NNE,15,2.0,8.0,79,0.00,,,0.00,meteohub,2013-11-02 14:27:00,
2013-11-02 10:32:00,42.4,36.3,29.59,West,277,4.0,9.0,79,0.00,,,0.00,meteohub,2013-11-02 14:32:00,
2013-11-02 10:37:00,42.6,36.5,29.60,WNW,284,0.0,9.0,79,0.00,,,0.00,meteohub,2013-11-02 14:37:00,
2013-11-02 10:42:00,42.8,36.7,29.60,WSW,244,6.0,9.0,79,0.00,,,0.00,meteohub,2013-11-02 14:42:00,
2013-11-02 10:47:00,42.8,36.5,29.60,NW,309,5.0,8.0,78,0.00,,,0.00,meteohub,2013-11-02 14:47:00,
2013-11-02 10:52:00,42.6,36.5,29.59,NW,304,1.0,8.0,79,0.00,,,0.00,meteohub,2013-11-02 14:52:00,
2013-11-02 10:57:00,43.0,36.9,29.60,NNE,26,1.0,8.0,79,0.00,,,0.00,meteohub,2013-11-02 14:57:00,
2013-11-02 11:02:00,43.2,36.7,29.60,West,259,0.0,8.0,78,0.00,,,0.00,meteohub,2013-11-02 15:02:00,
2013-11-02 11:08:00,43.2,36.7,29.60,West,278,8.0,8.0,78,0.00,,,0.00,meteohub,2013-11-02 15:08:00,
2013-11-02 11:13:00,43.3,36.7,29.60,SW,227,3.0,9.0,77,0.00,,,0.00,meteohub,2013-11-02 15:13:00,
2013-11-02 11:18:00,43.2,36.7,29.60,WNW,290,3.0,9.0,78,0.00,,,0.00,meteohub,2013-11-02 15:18:00,
2013-11-02 11:23:00,43.2,36.7,29.60,WNW,289,4.0,9.0,78,0.00,,,0.00,meteohub,2013-11-02 15:23:00,
2013-11-02 11:28:00,43.5,37.0,29.60,NW,304,4.0,9.0,78,0.00,,,0.00,meteohub,2013-11-02 15:28:00,
2013-11-02 11:33:00,43.9,36.9,29.60,North,355,2.0,9.0,76,0.00,,,0.00,meteohub,2013-11-02 15:33:00,
2013-11-02 11:38:00,44.2,36.9,29.60,NE,42,1.0,9.0,75,0.00,,,0.00,meteohub,2013-11-02 15:38:00,
2013-11-02 11:43:00,44.1,36.7,29.60,WNW,282,2.0,12.0,75,0.00,,,0.00,meteohub,2013-11-02 15:43:00,
2013-11-02 11:49:00,43.9,36.9,29.60,West,281,0.0,12.0,76,0.00,,,0.00,meteohub,2013-11-02 15:49:00,
2013-11-02 11:54:00,43.9,36.9,29.60,North,11,0.0,12.0,76,0.00,,,0.00,meteohub,2013-11-02 15:54:00,
2013-11-02 11:59:00,44.1,37.4,29.60,NW,311,0.0,10.0,77,0.00,,,0.00,meteohub,2013-11-02 15:59:00,
2013-11-02 12:04:00,44.2,37.6,29.59,West,260,0.0,7.0,77,0.00,,,0.00,meteohub,2013-11-02 16:04:00,
2013-11-02 12:09:00,44.2,36.9,29.59,NW,305,1.0,7.0,75,0.00,,,0.00,meteohub,2013-11-02 16:09:00,
2013-11-02 12:14:00,44.2,36.9,29.58,NNE,26,0.0,6.0,75,0.00,,,0.00,meteohub,2013-11-02 16:14:00,
2013-11-02 12:19:00,44.2,36.9,29.58,WNW,288,0.0,6.0,75,0.00,,,0.00,meteohub,2013-11-02 16:19:00,
2013-11-02 12:24:00,44.2,36.9,29.58,West,265,3.0,6.0,75,0.00,,,0.00,meteohub,2013-11-02 16:24:00,
2013-11-02 12:30:00,44.2,36.9,29.58,West,274,0.0,4.0,75,0.00,,,0.00,meteohub,2013-11-02 16:30:00,
2013-11-02 12:35:00,44.2,36.9,29.58,WSW,250,0.0,4.0,75,0.00,,,0.00,meteohub,2013-11-02 16:35:00,
2013-11-02 12:40:00,44.4,36.7,29.58,West,267,1.0,5.0,74,0.00,,,0.00,meteohub,2013-11-02 16:40:00,
2013-11-02 12:45:00,44.6,37.2,29.58,West,267,0.0,7.0,75,0.00,,,0.00,meteohub,2013-11-02 16:45:00,
2013-11-02 12:50:00,44.6,36.9,29.58,West,274,0.0,7.0,74,0.00,,,0.00,meteohub,2013-11-02 16:50:00,
2013-11-02 12:55:00,44.6,36.9,29.58,WNW,285,0.0,7.0,74,0.00,,,0.00,meteohub,2013-11-02 16:55:00,
2013-11-02 13:00:00,44.4,36.7,29.58,North,355,5.0,7.0,74,0.00,,,0.00,meteohub,2013-11-02 17:00:00,
2013-11-02 13:06:00,44.2,36.9,29.58,WNW,298,2.0,9.0,75,0.00,,,0.00,meteohub,2013-11-02 17:06:00,
2013-11-02 13:11:00,44.2,36.9,29.59,North,5,1.0,9.0,75,0.00,,,0.00,meteohub,2013-11-02 17:11:00,
2013-11-02 13:16:00,44.2,36.9,29.59,NNE,17,1.0,9.0,75,0.00,,,0.00,meteohub,2013-11-02 17:16:00,
2013-11-02 13:21:00,43.3,36.0,29.59,NNE,12,7.0,10.0,75,0.00,,,0.00,meteohub,2013-11-02 17:21:00,
2013-11-02 13:26:00,42.4,35.4,29.59,North,5,3.0,10.0,76,0.00,,,0.00,meteohub,2013-11-02 17:26:00,
2013-11-02 13:31:00,41.9,34.9,29.60,North,0,0.0,12.0,76,0.00,,,0.00,meteohub,2013-11-02 17:31:00,
2013-11-02 13:36:00,41.5,34.9,29.59,NNW,348,3.0,12.0,77,0.00,,,0.00,meteohub,2013-11-02 17:36:00,
2013-11-02 13:41:00,41.2,34.5,29.59,North,5,7.0,12.0,77,0.00,,,0.00,meteohub,2013-11-02 17:41:00,
2013-11-02 13:47:00,40.8,34.2,29.60,North,11,1.0,10.0,77,0.00,,,0.00,meteohub,2013-11-02 17:47:00,
2013-11-02 13:52:00,40.6,34.0,29.59,NNE,25,2.0,8.0,77,0.00,,,0.00,meteohub,2013-11-02 17:52:00,
2013-11-02 13:57:00,40.5,34.2,29.60,NNW,342,6.0,9.0,78,0.00,,,0.00,meteohub,2013-11-02 17:57:00,
2013-11-02 14:02:00,40.3,34.0,29.60,NNE,22,2.0,9.0,78,0.00,,,0.00,meteohub,2013-11-02 18:02:00,
2013-11-02 14:07:00,40.1,34.2,29.60,NNW,344,5.0,10.0,79,0.00,,,0.00,meteohub,2013-11-02 18:07:00,
2013-11-02 14:12:00,39.7,34.2,29.60,North,0,9.0,10.0,80,0.00,,,0.00,meteohub,2013-11-02 18:12:00,
2013-11-02 14:17:00,39.6,34.0,29.60,WSW,258,8.0,10.0,80,0.00,,,0.00,meteohub,2013-11-02 18:17:00,
2013-11-02 14:22:00,39.6,34.2,29.60,North,5,2.0,10.0,81,0.00,,,0.00,meteohub,2013-11-02 18:22:00,
2013-11-02 14:27:00,39.6,34.0,29.60,NNE,12,4.0,10.0,80,0.00,,,0.00,meteohub,2013-11-02 18:27:00,
2013-11-02 14:32:00,39.7,34.2,29.60,North,355,1.0,9.0,80,0.00,,,0.00,meteohub,2013-11-02 18:32:00,
2013-11-02 14:37:00,39.9,34.0,29.60,NNE,24,2.0,8.0,79,0.00,,,0.00,meteohub,2013-11-02 18:37:00,
2013-11-02 14:43:00,39.9,33.6,29.60,NNE,26,3.0,8.0,78,0.00,,,0.00,meteohub,2013-11-02 18:43:00,
2013-11-02 14:48:00,40.3,34.0,29.60,North,0,1.0,8.0,78,0.00,,,0.00,meteohub,2013-11-02 18:48:00,
2013-11-02 14:53:00,40.3,33.6,29.60,North,351,3.0,8.0,77,0.00,,,0.00,meteohub,2013-11-02 18:53:00,
2013-11-02 14:58:00,40.3,33.6,29.61,North,5,4.0,9.0,77,0.00,,,0.00,meteohub,2013-11-02 18:58:00,
2013-11-02 15:03:00,40.5,33.8,29.61,North,10,4.0,9.0,77,0.00,,,0.00,meteohub,2013-11-02 19:03:00,
2013-11-02 15:08:00,40.3,33.3,29.61,NW,319,5.0,8.0,76,0.00,,,0.00,meteohub,2013-11-02 19:08:00,
2013-11-02 15:13:00,40.1,33.1,29.61,NNW,337,5.0,9.0,76,0.00,,,0.00,meteohub,2013-11-02 19:13:00,
2013-11-02 15:18:00,39.7,32.7,29.61,NNW,329,3.0,9.0,76,0.00,,,0.00,meteohub,2013-11-02 19:18:00,
2013-11-02 15:23:00,39.6,32.5,29.61,North,9,4.0,10.0,76,0.00,,,0.00,meteohub,2013-11-02 19:23:00,
2013-11-02 15:29:00,39.7,32.7,29.62,NNE,15,4.0,10.0,76,0.00,,,0.00,meteohub,2013-11-02 19:29:00,
2013-11-02 15:34:00,39.6,32.5,29.62,North,11,0.0,10.0,76,0.00,,,0.00,meteohub,2013-11-02 19:34:00,
2013-11-02 15:39:00,39.6,32.0,29.62,North,355,3.0,9.0,74,0.00,,,0.00,meteohub,2013-11-02 19:39:00,
2013-11-02 15:44:00,39.4,31.8,29.62,North,355,7.0,8.0,74,0.00,,,0.00,meteohub,2013-11-02 19:44:00,
2013-11-02 15:49:00,39.2,31.6,29.62,NNE,13,8.0,9.0,74,0.00,,,0.00,meteohub,2013-11-02 19:49:00,
2013-11-02 15:54:00,39.2,31.6,29.63,NNW,335,3.0,9.0,74,0.00,,,0.00,meteohub,2013-11-02 19:54:00,
2013-11-02 15:59:00,39.0,31.1,29.63,North,0,8.0,10.0,73,0.00,,,0.00,meteohub,2013-11-02 19:59:00,
2013-11-02 16:05:00,39.0,31.1,29.63,NNE,15,3.0,10.0,73,0.00,,,0.00,meteohub,2013-11-02 20:05:00,
2013-11-02 16:10:00,38.8,30.6,29.63,North,0,7.0,10.0,72,0.00,,,0.00,meteohub,2013-11-02 20:10:00,
2013-11-02 16:15:00,38.8,30.6,29.64,NNE,17,5.0,10.0,72,0.00,,,0.00,meteohub,2013-11-02 20:15:00,
2013-11-02 16:20:00,38.7,30.0,29.64,NNW,333,3.0,10.0,71,0.00,,,0.00,meteohub,2013-11-02 20:20:00,
2013-11-02 16:25:00,38.7,30.0,29.64,NNW,347,3.0,11.0,71,0.00,,,0.00,meteohub,2013-11-02 20:25:00,
2013-11-02 16:30:00,38.7,30.4,29.64,North,355,5.0,11.0,72,0.00,,,0.00,meteohub,2013-11-02 20:30:00,
2013-11-02 16:35:00,38.7,30.0,29.64,NNW,346,5.0,11.0,71,0.00,,,0.00,meteohub,2013-11-02 20:35:00,
2013-11-02 16:41:00,38.5,29.8,29.64,North,5,2.0,9.0,71,0.00,,,0.00,meteohub,2013-11-02 20:41:00,
2013-11-02 16:46:00,38.5,29.8,29.65,NW,323,3.0,9.0,71,0.00,,,0.00,meteohub,2013-11-02 20:46:00,
2013-11-02 16:51:00,38.1,29.5,29.65,NNW,345,5.0,11.0,71,0.00,,,0.00,meteohub,2013-11-02 20:51:00,
2013-11-02 16:56:00,38.1,29.5,29.65,NNW,340,4.0,11.0,71,0.00,,,0.00,meteohub,2013-11-02 20:56:00,
2013-11-02 17:01:00,37.9,29.7,29.66,North,355,12.0,12.0,72,0.00,,,0.00,meteohub,2013-11-02 21:01:00,
2013-11-02 17:06:00,37.8,29.1,29.66,NNW,347,6.0,12.0,71,0.00,,,0.00,meteohub,2013-11-02 21:06:00,
2013-11-02 17:11:00,37.6,29.3,29.66,NNW,348,3.0,13.0,72,0.00,,,0.00,meteohub,2013-11-02 21:11:00,
2013-11-02 17:16:00,37.2,29.1,29.67,North,10,5.0,13.0,72,0.00,,,0.00,meteohub,2013-11-02 21:16:00,
2013-11-02 17:22:00,37.0,29.1,29.67,NNW,340,8.0,11.0,73,0.00,,,0.00,meteohub,2013-11-02 21:22:00,
2013-11-02 17:27:00,36.9,28.8,29.67,North,350,1.0,10.0,72,0.00,,,0.00,meteohub,2013-11-02 21:27:00,
2013-11-02 17:32:00,36.9,28.8,29.67,NNW,335,8.0,10.0,72,0.00,,,0.00,meteohub,2013-11-02 21:32:00,
2013-11-02 17:37:00,36.7,28.6,29.68,NNW,342,4.0,10.0,72,0.00,,,0.00,meteohub,2013-11-02 21:37:00,
2013-11-02 17:42:00,36.3,28.2,29.68,NNW,344,0.0,9.0,72,0.00,,,0.00,meteohub,2013-11-02 21:42:00,
2013-11-02 17:47:00,36.1,28.4,29.68,NNW,333,5.0,9.0,73,0.00,,,0.00,meteohub,2013-11-02 21:47:00,
2013-11-02 17:52:00,36.1,28.4,29.68,North,11,0.0,8.0,73,0.00,,,0.00,meteohub,2013-11-02 21:52:00,
2013-11-02 17:57:00,36.1,28.4,29.68,NNE,20,0.0,6.0,73,0.00,,,0.00,meteohub,2013-11-02 21:57:00,
2013-11-02 18:02:00,36.1,28.4,29.69,NNW,336,0.0,7.0,73,0.00,,,0.00,meteohub,2013-11-02 22:02:00,
2013-11-02 18:07:00,36.1,27.7,29.70,West,278,1.0,7.0,71,0.00,,,0.00,meteohub,2013-11-02 22:07:00,
2013-11-02 18:12:00,36.1,27.7,29.70,North,0,3.0,8.0,71,0.00,,,0.00,meteohub,2013-11-02 22:12:00,
2013-11-02 18:17:00,36.1,27.3,29.70,NW,319,1.0,8.0,70,0.00,,,0.00,meteohub,2013-11-02 22:17:00,
2013-11-02 18:22:00,36.0,27.1,29.70,NNW,329,7.0,9.0,70,0.00,,,0.00,meteohub,2013-11-02 22:22:00,
2013-11-02 18:27:00,35.8,27.0,29.71,NNE,18,5.0,11.0,70,0.00,,,0.00,meteohub,2013-11-02 22:27:00,
2013-11-02 18:32:00,35.8,26.6,29.71,ENE,72,2.0,11.0,69,0.00,,,0.00,meteohub,2013-11-02 22:32:00,
2013-11-02 18:37:00,35.4,26.2,29.72,WNW,294,8.0,11.0,69,0.00,,,0.00,meteohub,2013-11-02 22:37:00,
2013-11-02 18:42:00,35.4,26.2,29.72,West,271,2.0,11.0,69,0.00,,,0.00,meteohub,2013-11-02 22:42:00,
2013-11-02 18:47:00,35.2,26.4,29.72,North,355,1.0,11.0,70,0.00,,,0.00,meteohub,2013-11-02 22:47:00,
2013-11-02 18:52:00,35.1,26.2,29.73,NNW,348,0.0,8.0,70,0.00,,,0.00,meteohub,2013-11-02 22:52:00,
2013-11-02 18:57:00,35.1,26.6,29.73,North,10,2.0,8.0,71,0.00,,,0.00,meteohub,2013-11-02 22:57:00,
2013-11-02 19:02:00,34.9,26.4,29.73,North,0,3.0,6.0,71,0.00,,,0.00,meteohub,2013-11-02 23:02:00,
2013-11-02 19:07:00,34.5,26.1,29.73,North,355,1.0,6.0,71,0.00,,,0.00,meteohub,2013-11-02 23:07:00,
2013-11-02 19:12:00,34.5,26.1,29.73,North,355,6.0,6.0,71,0.00,,,0.00,meteohub,2013-11-02 23:12:00,
2013-11-02 19:17:00,34.3,25.5,29.73,NNE,13,0.0,7.0,70,0.00,,,0.00,meteohub,2013-11-02 23:17:00,
2013-11-02 19:22:00,34.3,25.5,29.73,North,5,2.0,8.0,70,0.00,,,0.00,meteohub,2013-11-02 23:22:00,
2013-11-02 19:27:00,34.3,25.5,29.73,NNW,340,1.0,8.0,70,0.00,,,0.00,meteohub,2013-11-02 23:27:00,
2013-11-02 19:32:00,34.2,25.3,29.73,NNE,24,3.0,8.0,70,0.00,,,0.00,meteohub,2013-11-02 23:32:00,
2013-11-02 19:37:00,34.2,25.3,29.74,NNE,15,0.0,6.0,70,0.00,,,0.00,meteohub,2013-11-02 23:37:00,
2013-11-02 19:42:00,33.8,25.3,29.74,North,0,1.0,6.0,71,0.00,,,0.00,meteohub,2013-11-02 23:42:00,
2013-11-02 19:47:00,33.6,25.2,29.74,NE,47,0.0,6.0,71,0.00,,,0.00,meteohub,2013-11-02 23:47:00,
2013-11-02 19:52:00,33.4,25.3,29.75,NNW,333,0.0,6.0,72,0.00,,,0.00,meteohub,2013-11-02 23:52:00,
2013-11-02 19:57:00,33.3,25.5,29.75,North,355,0.0,3.0,73,0.00,,,0.00,meteohub,2013-11-02 23:57:00,
2013-11-02 20:02:00,32.9,25.2,29.75,WNW,302,2.0,4.0,73,0.00,,,0.00,meteohub,2013-11-03 00:02:00,
2013-11-02 20:08:00,32.7,25.0,29.75,WNW,293,0.0,4.0,73,0.00,,,0.00,meteohub,2013-11-03 00:08:00,
2013-11-02 20:13:00,32.7,25.0,29.75,NW,318,0.0,4.0,73,0.00,,,0.00,meteohub,2013-11-03 00:13:00,
2013-11-02 20:18:00,32.5,24.8,29.75,NW,319,0.0,4.0,73,0.00,,,0.00,meteohub,2013-11-03 00:18:00,
2013-11-02 20:23:00,32.4,25.0,29.75,NW,306,0.0,4.0,74,0.00,,,0.00,meteohub,2013-11-03 00:23:00,
2013-11-02 20:28:00,32.4,25.0,29.75,NW,309,0.0,4.0,74,0.00,,,0.00,meteohub,2013-11-03 00:28:00,
2013-11-02 20:33:00,32.5,24.8,29.76,WNW,291,2.0,6.0,73,0.00,,,0.00,meteohub,2013-11-03 00:33:00,
2013-11-02 20:38:00,32.5,24.8,29.76,NW,320,0.0,6.0,73,0.00,,,0.00,meteohub,2013-11-03 00:38:00,
2013-11-02 20:43:00,32.5,24.4,29.76,North,5,0.0,6.0,72,0.00,,,0.00,meteohub,2013-11-03 00:43:00,
2013-11-02 20:49:00,32.5,24.8,29.76,NNW,329,3.0,5.0,73,0.00,,,0.00,meteohub,2013-11-03 00:49:00,
2013-11-02 20:54:00,32.5,24.8,29.76,North,5,1.0,5.0,73,0.00,,,0.00,meteohub,2013-11-03 00:54:00,
2013-11-02 20:59:00,32.7,24.4,29.76,North,0,4.0,5.0,71,0.00,,,0.00,meteohub,2013-11-03 00:59:00,
2013-11-02 21:04:00,33.3,24.6,29.77,NNW,342,3.0,10.0,70,0.00,,,0.00,meteohub,2013-11-03 01:04:00,
2013-11-02 21:09:00,33.4,24.8,29.76,North,5,4.0,12.0,70,0.00,,,0.00,meteohub,2013-11-03 01:09:00,
2013-11-02 21:14:00,33.4,24.8,29.77,North,5,3.0,12.0,70,0.00,,,0.00,meteohub,2013-11-03 01:14:00,
2013-11-02 21:19:00,33.4,25.0,29.77,North,5,2.0,12.0,71,0.00,,,0.00,meteohub,2013-11-03 01:19:00,
2013-11-02 21:24:00,33.3,24.8,29.78,North,10,5.0,8.0,71,0.00,,,0.00,meteohub,2013-11-03 01:24:00,
2013-11-02 21:30:00,33.3,24.8,29.78,North,5,3.0,8.0,71,0.00,,,0.00,meteohub,2013-11-03 01:30:00,
2013-11-02 21:35:00,33.1,24.6,29.78,NNW,337,6.0,6.0,71,0.00,,,0.00,meteohub,2013-11-03 01:35:00,
2013-11-02 21:40:00,33.3,24.3,29.79,NNW,328,16.0,16.0,69,0.00,,,0.00,meteohub,2013-11-03 01:40:00,
2013-11-02 21:45:00,33.3,23.5,29.79,WSW,256,7.0,16.0,67,0.00,,,0.00,meteohub,2013-11-03 01:45:00,
2013-11-02 21:50:00,33.3,22.8,29.79,North,0,7.0,16.0,65,0.00,,,0.00,meteohub,2013-11-03 01:50:00,
2013-11-02 21:55:00,33.3,22.5,29.80,North,5,10.0,16.0,64,0.00,,,0.00,meteohub,2013-11-03 01:55:00,
2013-11-02 22:00:00,33.3,21.2,29.80,South,188,4.0,13.0,61,0.00,,,0.00,meteohub,2013-11-03 02:00:00,
2013-11-02 22:06:00,33.3,20.8,29.80,North,355,7.0,13.0,60,0.00,,,0.00,meteohub,2013-11-03 02:06:00,
2013-11-02 22:11:00,33.3,20.5,29.80,North,5,10.0,13.0,59,0.00,,,0.00,meteohub,2013-11-03 02:11:00,
2013-11-02 22:16:00,33.1,19.9,29.81,NW,323,4.0,12.0,58,0.00,,,0.00,meteohub,2013-11-03 02:16:00,
2013-11-02 22:21:00,33.1,19.9,29.81,North,350,10.0,12.0,58,0.00,,,0.00,meteohub,2013-11-03 02:21:00,
2013-11-02 22:26:00,32.9,20.1,29.81,West,259,1.0,12.0,59,0.00,,,0.00,meteohub,2013-11-03 02:26:00,
2013-11-02 22:31:00,32.7,19.6,29.81,North,5,2.0,10.0,58,0.00,,,0.00,meteohub,2013-11-03 02:31:00,
2013-11-02 22:36:00,32.7,19.2,29.81,West,270,4.0,10.0,57,0.00,,,0.00,meteohub,2013-11-03 02:36:00,
2013-11-02 22:41:00,32.7,19.6,29.82,WNW,286,0.0,10.0,58,0.00,,,0.00,meteohub,2013-11-03 02:41:00,
2013-11-02 22:47:00,32.5,19.4,29.82,NW,304,2.0,10.0,58,0.00,,,0.00,meteohub,2013-11-03 02:47:00,
2013-11-02 22:52:00,32.4,19.2,29.82,North,5,1.0,10.0,58,0.00,,,0.00,meteohub,2013-11-03 02:52:00,
2013-11-02 22:57:00,32.4,19.2,29.82,North,11,7.0,17.0,58,0.00,,,0.00,meteohub,2013-11-03 02:57:00,
2013-11-02 23:02:00,32.2,19.4,29.82,NW,307,5.0,17.0,59,0.00,,,0.00,meteohub,2013-11-03 03:02:00,
2013-11-02 23:07:00,32.2,19.4,29.83,NNW,345,8.0,17.0,59,0.00,,,0.00,meteohub,2013-11-03 03:07:00,
2013-11-02 23:12:00,31.8,19.6,29.83,NNW,331,2.0,8.0,60,0.00,,,0.00,meteohub,2013-11-03 03:12:00,
2013-11-02 23:17:00,31.8,19.9,29.83,NNW,344,2.0,8.0,61,0.00,,,0.00,meteohub,2013-11-03 03:17:00,
2013-11-02 23:22:00,31.6,19.8,29.83,North,0,7.0,9.0,61,0.00,,,0.00,meteohub,2013-11-03 03:22:00,
2013-11-02 23:27:00,31.6,19.8,29.83,NW,306,6.0,10.0,61,0.00,,,0.00,meteohub,2013-11-03 03:27:00,
2013-11-02 23:32:00,31.5,19.9,29.83,NNW,346,0.0,10.0,62,0.00,,,0.00,meteohub,2013-11-03 03:32:00,
2013-11-02 23:37:00,31.3,20.1,29.83,NNE,16,2.0,10.0,63,0.00,,,0.00,meteohub,2013-11-03 03:37:00,
2013-11-02 23:42:00,31.3,20.1,29.83,North,355,3.0,7.0,63,0.00,,,0.00,meteohub,2013-11-03 03:42:00,
2013-11-02 23:47:00,30.9,19.8,29.83,NW,310,0.0,7.0,63,0.00,,,0.00,meteohub,2013-11-03 03:47:00,
2013-11-02 23:52:00,30.7,19.9,29.83,North,0,0.0,6.0,64,0.00,,,0.00,meteohub,2013-11-03 03:52:00,
2013-11-02 23:57:00,30.6,19.8,29.83,NNW,344,0.0,6.0,64,0.00,,,0.00,meteohub,2013-11-03 03:57:00,